Location: Burbank
(38.7788°N, 114.0429°W)
Time: 02:37:00
(UTC+00:00)

Transit 2A Rocket - Pass Details

Date: 18 May 2026
Orbit: 589 x 893 km, 66.7° (Epoch: 9 June)

Event Time Altitude Azimuth Distance (km) Brightness Sun altitude
Rises 03:39:52 0° 268° (W) 3,363 9.2 -10.2°
Reaches altitude 10° 03:44:38 10° 304° (WNW) 2,351 9.1 -11.0°
Maximum altitude 03:45:58 11° 318° (NW) 2,267 8.9 -11.2°
Drops below altitude 10° 03:47:18 10° 333° (NNW) 2,302 8.6 -11.4°
Sets 03:51:47 0° 10° (N) 3,136 8.6 -12.1°
